Regional Weather Roundup
Issued by NWS

Home | Current Version | Previous Version | Text Only | Print | Product List | Glossary On
Versions: 1 2 3 4 5 6 7 8 9 10 11 12 13 14 15 16 17 18 19 20 21 22 23 24 25 26 27 28 29 30 31 32 33 34 35 36 37 38 39 40 41 42 43 44 45 46 47 48 49 50
000
ASUS46 KSEW 270810
RWRWA

WASHINGTON REGIONAL WEATHER ROUNDUP
NATIONAL WEATHER SERVICE SEATTLE WA
1200 AM PST FRI FEB 27 2015

NOTE:"FAIR" INDICATES FEW OR NO CLOUDS BELOW 12,000 FEET WITH NO
SIGNIFICANT WEATHER AND/OR OBSTRUCTIONS TO VISIBILITY.

WAZ505-507>509-270900-
SEATTLE, TACOMA, EVERETT, AND VICINITY

CITY           SKY/WX    TMP DP  RH WIND       PRES   REMARKS
EVERETT        LGT RAIN  47  44  90 SE6       29.81F
BOEING FIELD   LGT RAIN  51  46  83 SE5       29.81F
RENTON         LGT RAIN  49  47  93 VRB3      29.81F
SEATAC AIRPORT LGT RAIN  48  46  93 E8        29.80F
JBLM-MCCHORD   LGT RAIN  48  48 100 SW1       29.79F VSB 1
PUYALLUP       CLOUDY    46  46 100 CALM      29.80F FOG
BREMERTON      CLOUDY    48  48 100 CALM      29.82F
JBLM-FT LEWIS  LGT RAIN  48  48 100 CALM      29.79F
TACOMA NARROWS LGT RAIN  49  47  93 CALM      29.80F
$$

WAZ001-503-506-510-514-515-270900-
NORTH INTERIOR

CITY           SKY/WX    TMP DP  RH WIND       PRES   REMARKS
BELLINGHAM     CLOUDY    45  41  86 N5        29.83F
FRIDAY HARBOR  LGT RAIN  46  44  93 N7        29.83F
EASTSOUND      LGT RAIN  46  41  81 NE5       29.82F
PORT ANGELES   CLOUDY    47  46  97 N6        29.78F FOG
NAS WHIDBEY    LGT RAIN  48  44  86 E6        29.82F
ARLINGTON      CLOUDY    45  41  87 N6        29.84F
BURLINGTON     CLOUDY    46  45  93 NE8       29.84F
$$

WAZ020-022-039-040-504-511-512-270900-
SOUTHWEST INTERIOR

CITY           SKY/WX    TMP DP  RH WIND       PRES   REMARKS
SHELTON        RAIN      47  46  97 CALM      29.78F FOG
OLYMPIA        LGT RAIN  48  47  96 CALM      29.79F FOG
CHEHALIS       CLOUDY    50  50 100 VRB5      29.79F
KELSO          CLOUDY    50  46  87 SE6G16    29.84F
VANCOUVER      LGT RAIN  49  47  93 E6        29.82F
SCAPPOOSE, OR  CLOUDY    50  47  89 SE5       29.82F
PORTLAND, OR   LGT RAIN  49  48  97 E6        29.84F
$$

WAZ021-516-517-270900-
WASHINGTON COAST

CITY           SKY/WX    TMP DP  RH WIND       PRES   REMARKS
FORKS          LGT RAIN  47  47 100 E7        29.76F FOG
HOQUIAM        CLOUDY    50  48  93 W9        29.76F
ASTORIA, OR    LGT RAIN  48  46  93 W7        29.80S FOG
$$

WAZ019-023-024-040-518-519-270900-
CASCADE MOUNTAINS AND COLUMBIA GORGE

CITY           SKY/WX    TMP DP  RH WIND       PRES   REMARKS
TROUTDALE, OR  CLOUDY    49  47  93 CALM      29.83F
THE DALLES, OR CLOUDY    47  41  80 E3        29.84F
$$

WAZ026-027-041>044-520-521-270900-
EAST SLOPES

CITY           SKY/WX    TMP DP  RH WIND       PRES   REMARKS
OMAK           CLOUDY    40  30  67 W3        29.89F
WENATCHEE      CLOUDY    45  32  60 SE9       29.86F
ELLENSBURG     CLOUDY    44  39  82 CALM      29.84F
YAKIMA         CLOUDY    47  39  74 SW5       29.85F
$$

WAZ028-034-035-270900-
COLUMBIA BASIN

CITY           SKY/WX    TMP DP  RH WIND       PRES   REMARKS
EPHRATA        CLOUDY    38  33  82 N8        29.88F
MOSES LAKE     MOCLDY    34  31  88 NE3       29.89F
PASCO          CLOUDY    40  37  89 NW3       29.88F
HERMISTON, OR  CLOUDY    46  40  79 SE5       29.85F
$$

WAZ036>038-270900-
NORTHEAST WASHINGTON

CITY           SKY/WX    TMP DP  RH WIND       PRES   REMARKS
SPOKANE GEIGER PTCLDY    32  29  88 NE3       29.88F
SPOKANE FELTS  CLEAR     31  27  85 CALM      29.91F
FAIRCHILD AFB  CLEAR     32  31  99 NE5       29.88S
COEURDALENE,ID PTCLDY    30  27  86 NE6       29.89S
DEER PARK      PTCLDY    30  27  88 CALM      29.90F
$$

WAZ029>033-270900-
SOUTHEAST WASHINGTON

CITY           SKY/WX    TMP DP  RH WIND       PRES   REMARKS
PULLMAN        CLOUDY    36  31  82 NE3       29.88F
LEWISTON, ID   MOCLDY    39  37  92 CALM      29.89F
WALLA WALLA    CLOUDY    43  34  70 SE7       29.86F
PENDLETON, OR  CLOUDY    43  39  86 S7        29.85F
$$


USA.gov is the U.S. government's official web portal to all federal, state and local government web resources and services.